Regional Weather Roundup
Issued by NWS

Home | Current Version | Previous Version | Text Only | Print | Product List | Glossary Off
Versions: 1 2 3 4 5 6 7 8 9 10 11 12 13 14 15 16 17 18 19 20 21 22 23 24 25 26 27 28 29 30 31 32 33 34 35 36 37 38 39 40 41 42 43 44 45 46 47 48 49 50

614
ASUS43 KIND 220309
RWRIN

WEATHER ROUNDUP FOR INDIANA
NATIONAL WEATHER SERVICE INDIANAPOLIS IN
1000 PM EST TUE FEB 21 2017

NOTE: "FAIR" INDICATES FEW OR NO CLOUDS BELOW 12,000 FEET WITH NO
SIGNIFICANT WEATHER AND/OR OBSTRUCTIONS TO VISIBILITY.

* - STATION DOES NOT REPORT WEATHER SUCH AS PRECIPITATION OR FOG.

+ - STATION NOT QUALITY CONTROLLED BY THE NATIONAL WEATHER SERVICE.
    USE DATA WITH CAUTION...ESPECIALLY DEWPOINT AND RELATIVE
    HUMIDITY OBSERVATIONS.

INZ001>003-010>013-019-020-220400-
NORTHWEST INDIANA

CITY           SKY/WX    TMP DP  RH WIND       PRES   REMARKS
GARY /AIRPORT/ MOCLDY    59  54  82 CALM      29.91S
KNOX *+        CLOUDY    50  37  62 S3        29.92S
LA PORTE +     PTCLDY    47  46  97 CALM      29.93S
MICHIGAN CITY+ PTCLDY    50  50 100 CALM      29.91F FOG
MONTICELLO +   PTCLDY    55  50  83 CALM      29.92F
RENSSELAER +   MOCLDY    54  52  94 SE3       29.92F
VALPARAISO     PTCLDY    55  52  89 CALM      29.92S

$$

LMZ046-743>745-220400-
SOUTHERN LAKE MICHIGAN

STATION/POSITION TIME  TEMP    WIND        PRES    WAVE
                       AIR SEA DIR/SP/G            HT
                 (UTC) (F)     (DEG/KT/KT) (MB)    (FT)
BURNS HARBOR     0240   57     180/  7/ 10 1013.5R
MICHIGAN CITY    0240   58     160/  9/ 11   N/A

$$

INZ004-005-014>016-021>024-220400-
NORTH CENTRAL INDIANA

CITY           SKY/WX    TMP DP  RH WIND       PRES   REMARKS
GOSHEN         CLOUDY    50  46  86 S5        29.93S
LOGANSPORT +   CLOUDY    50  50 100 SE5       29.94S
PERU/GRISSOM   CLOUDY    52  52 100 S3        29.92F
ROCHESTER +    CLOUDY    54  50  87 SE3       29.93F
SOUTH BEND     PTCLDY    47  45  93 CALM      29.93S FOG
WARSAW +       CLOUDY    54  46  76 S3        29.93F

$$

INZ006>009-017-018-025>027-220400-
NORTHEAST INDIANA

CITY           SKY/WX    TMP DP  RH WIND       PRES   REMARKS
ANGOLA *+      MOCLDY    46  46 100 CALM      29.93S
AUBURN +       CLOUDY    52  46  82 CALM      29.95S
FORT WAYNE     CLOUDY    49  45  86 CALM      29.94F
HUNTINGTON +   CLOUDY    47  46  96 CALM      29.95S
KENDALLVILLE + CLOUDY    51  49  92 S6        29.94S

$$

INZ028-029-035-036-043>045-051>053-220400-
WEST CENTRAL INDIANA

CITY           SKY/WX    TMP DP  RH WIND       PRES   REMARKS
GREENCASTLE +  CLOUDY    54  52  94 CALM      29.95S
LAFAYETTE      CLOUDY    53  50  89 CALM      29.93S
TERRE HAUTE    CLOUDY    55  51  86 CALM      29.94F

$$

INZ030>032-037>040-046>048-054>057-064-065-220400-
CENTRAL INDIANA

CITY           SKY/WX    TMP DP  RH WIND       PRES   REMARKS
CP ATTERBURY + CLOUDY    54  52  94 CALM      29.97F
COLUMBUS       CLOUDY    52  52 100 CALM      29.98R FOG
FRANKFORT +    CLOUDY    53  50  87 S3        29.96S
GREENWOOD *+   CLOUDY    56  55  94 S8        29.97S
INDIANAPOLIS   CLOUDY    57  53  86 S8        29.95S
-EAGLE CREEK   CLOUDY    58  52  80 CALM      29.94S
KOKOMO +       CLOUDY    51  48  89 CALM      29.95S
MARION +       MOCLDY    53  49  86 S8        29.95F
MT COMFORT *+  CLOUDY    54  52  94 S8        29.95F
SHELBYVILLE    CLOUDY    56  53  90 S8        29.96S
ZIONSVILLE +   MOCLDY    54  51  89 CALM      29.95S

$$

INZ033-034-041-042-049-050-058-059-220400-
EAST CENTRAL INDIANA

CITY           SKY/WX    TMP DP  RH WIND       PRES   REMARKS
MUNCIE         CLOUDY    58  52  80 S7        29.95F

$$

INZ060-061-067>069-081>083-085>088-220400-
SOUTHWEST INDIANA

CITY           SKY/WX    TMP DP  RH WIND       PRES   REMARKS
EVANSVILLE     CLOUDY    61  54  77 SE5       29.93F
HUNTINGBURG *+ CLOUDY    61  55  82 SE7       29.94S
WASHINGTON +   CLOUDY   N/A N/A N/A SE6       29.93F HAZE

$$

INZ062-063-066-070>080-084-089>092-220400-
SOUTH CENTRAL AND SOUTHEAST INDIANA

CITY           SKY/WX    TMP DP  RH WIND       PRES   REMARKS
BEDFORD +      DRIZZLE  N/A N/A N/A CALM      29.96S
BLOOMINGTON    CLOUDY    56  53  90 S3        29.96S
MADISON *+     CLOUDY    57  54  88 SE6       30.00F
NORTH VERNON + RAIN     N/A N/A N/A CALM      29.98S
SEYMOUR +      DRZL/FOG  55  55 100 CALM      29.98S VSB 3/4

$$





USA.gov is the U.S. government's official web portal to all federal, state and local government web resources and services.